TIANWANG 1A (TW-1A)
1 40928U 15051D   19255.79482968  .00002884  00000-0  71384-4 0  9999
2 40928  97.1403 285.1856 0012308 115.3902 331.9181 15.41162731222439
LAPAN A2
1 40931U 15052B   19255.06119439  .00000595  00000-0 -63348-5 0  9994
2 40931   5.9983 167.8520 0013975 285.1572  74.6833 14.76612832213903
LQSAT
1 40958U 15057A   19255.89759444 +.00000003 +00000-0 +80971-5 0  9999
2 40958 097.8920 322.7349 0017324 328.5362 031.4808 14.73088234211502
CHUBUSAT 2
1 41338U 16012B   19255.59140099  .00000296  00000-0  16272-4 0  9997
2 41338  31.0037 318.8595 0013801 234.4476 125.4873 15.00176955195821
CHUBUSAT 3
1 41339U 16012C   19255.61741398  .00000273  00000-0  14446-4 0  9996
2 41339  31.0121 316.6770 0013635 242.5156 117.4097 15.00350564195826
OUFTI-1
1 41458U 16025C   19255.83771738 +.00000798 +00000-0 +44222-4 0  9994
2 41458 098.1012 347.0625 0167351 067.6572 294.2295 15.06007172185532
E-STAR-2
1 41459U 16025D   19255.80848031  .00001337  00000-0  71669-4 0  9998
2 41459  98.0993 346.6421 0168204  69.1271 292.7853 15.05631748185501
AAUSAT 4
1 41460U 16025E   19255.21065659  .00001779  00000-0  91834-4 0  9998
2 41460  98.0972 347.4767 0158225  63.0694 298.6682 15.07586642185550
NUSAT 1
1 41557U 16033B   19255.87287666 +.00000901 +00000-0 +36342-4 0  9999
2 41557 097.4164 342.8716 0013638 000.6528 359.4726 15.27361708183242
BEESAT 4
1 41619U 16040W   19255.70503886 +.00000997 +00000-0 +44915-4 0  9993
2 41619 097.3601 316.2978 0013026 082.9071 277.3646 15.23284785166951
PRATHAM
1 41783U 16059A   19255.77522853  .00000033  00000-0  15531-4 0  9990
2 41783  98.0597 313.4208 0034869 112.6294 247.8602 14.63008109158138
ALSAT 1N
1 41789U 16059G   19255.89541695 +.00000043 +00000-0 +17028-4 0  9998
2 41789 098.0632 315.7228 0029570 101.4635 258.9877 14.64260341158269
NAYIF 1
1 42017U 17008BX  19255.88266996 +.00001070 +00000-0 +44814-4 0  9999
2 42017 097.3965 322.0646 0005225 212.1374 147.9547 15.25699133143067
MAX VALIER SAT
1 42778U 17036P   19255.71691720 +.00000622 +00000-0 +30122-4 0  9992
2 42778 097.3468 311.4558 0010637 284.1057 075.8997 15.22124677123321
